Vorticity
6 6 6 8 8 1 0 -0 2 4 3 14 20 18 13 14 16 12 13 11 11 11 10 11 11 11 13 14 13 13 13 12 12 11 8 7 8 5 5 6 6 6 7 9 8 6 6
5 2 5 5 9 6 6 1 -1 2 3 7 7 8 5 6 5 7 9 8 8 11 10 13 13 12 15 15 11 12 11 12 12 13 15 13 11 9 8 6 7 9 8 7 8 8 7
6 5 5 2 5 11 8 6 4 4 5 4 0 10 3 4 8 8 5 4 8 6 4 6 8 9 8 15 17 17 15 16 13 14 16 17 16 13 12 8 6 6 7 7 6 8 9
6 6 5 6 4 5 8 8 12 4 6 11 3 2 5 1 5 0 4 6 4 8 7 4 7 11 3 9 5 8 9 9 9 10 13 14 16 17 15 13 11 7 6 10 9 9 9
10 7 7 7 6 7 6 5 -1 9 17 3 4 12 2 11 6 7 8 3 -1 -4 2 9 6 7 6 4 9 4 5 6 8 8 9 9 10 12 14 12 12 11 9 11 10 11 9
10 10 10 7 6 8 6 4 4 5 8 12 0 -6 11 2 -2 14 -2 -1 -7 -3 -1 6 6 3 7 5 5 5 6 6 8 9 10 11 11 10 10 12 11 9 10 11 11 7 9
8 8 10 10 10 8 8 7 5 6 11 7 4 -1 -9 11 10 7 3 10 8 1 -0 3 6 5 4 12 5 6 6 4 8 10 12 11 10 11 14 15 17 17 14 13 12 10 7
2 3 4 7 7 8 9 9 10 8 8 6 3 3 -6 -10 -2 5 12 3 -5 -2 1 4 7 5 6 12 6 4 4 4 5 11 12 11 11 13 13 13 11 12 12 10 11 9 12
11 9 7 3 2 4 4 7 8 11 13 8 3 5 1 -12 10 3 0 6 1 5 2 6 5 4 6 4 8 6 1 6 7 12 10 7 11 9 9 7 8 7 6 6 4 6 6
6 6 6 7 11 13 8 2 1 6 9 12 15 9 7 5 3 2 6 11 0 0 5 7 7 4 8 6 6 8 5 4 7 9 8 7 9 7 5 6 8 5 7 6 5 6 6
7 6 7 8 7 8 9 10 14 8 2 4 11 12 14 16 13 12 9 10 9 7 4 11 9 9 5 7 6 8 9 4 7 9 10 5 5 7 6 6 6 4 6 6 6 6 5
6 8 9 9 8 7 6 8 9 9 10 12 4 0 11 12 10 11 10 10 12 9 9 2 5 7 7 8 5 4 10 7 5 8 8 7 8 6 6 6 5 4 6 7 4 6 6
5 6 6 8 9 10 10 9 11 13 12 10 10 11 10 8 12 14 12 12 10 3 9 8 9 8 7 5 6 6 8 6 6 9 8 7 5 5 6 6 8 9 7 5 5 -0 15
6 7 6 7 8 8 9 12 14 15 18 15 16 10 9 12 6 11 10 13 7 11 9 10 6 7 7 5 5 7 9 9 7 8 6 5 3 7 10 11 9 8 6 6 4 4 -3
10 12 11 9 11 11 10 10 12 15 15 17 20 22 14 13 15 8 11 5 13 13 13 10 8 9 7 7 7 6 4 8 5 5 5 5 5 7 10 9 7 4 5 10 10 13 18
12 11 10 10 9 9 12 14 10 11 12 11 16 23 19 18 11 17 8 7 11 12 10 10 8 8 8 7 6 5 6 6 6 5 6 5 4 8 8 8 6 9 11 16 22 25 21
9 12 13 14 12 15 15 16 10 10 13 12 13 12 23 12 13 11 9 12 18 9 12 10 8 7 7 7 6 5 5 5 7 6 6 3 5 9 10 7 10 16 20 22 19 11 7
11 11 11 14 16 16 17 15 14 9 11 10 13 15 18 19 18 9 13 14 15 10 9 7 9 7 5 7 7 6 4 6 6 5 4 4 5 10 8 13 14 16 16 13 12 11 8
10 11 9 11 13 15 15 14 13 12 14 17 14 15 15 21 17 14 10 7 12 12 9 9 7 6 7 5 5 4 4 7 7 6 4 5 9 9 13 12 12 10 14 12 10 5 6
10 12 14 11 12 15 14 14 13 13 14 13 14 16 15 17 18 19 13 11 8 13 10 7 8 7 7 7 6 6 6 5 6 6 8 7 10 10 10 10 11 13 12 9 6 6 4
12 12 12 13 20 17 13 14 13 14 16 18 17 16 16 14 20 14 14 10 10 12 13 9 8 7 8 8 5 5 4 5 7 9 8 9 9 11 9 8 13 12 9 6 7 6 6
12 13 14 14 13 13 13 15 15 16 15 16 14 16 19 18 17 18 14 11 11 12 11 8 8 8 8 7 6 5 5 6 6 10 8 9 12 9 6 10 12 8 8 6 6 6 6
14 14 13 12 12 14 14 15 14 12 13 14 14 14 16 19 17 19 11 11 13 15 13 7 9 8 8 7 5 5 7 7 9 9 8 8 10 8 8 9 8 7 6 6 5 7 3
10 12 13 13 13 14 14 13 12 12 11 13 11 10 17 19 17 13 13 31 13 16 10 9 8 9 9 6 6 7 7 8 9 7 8 11 9 6 6 6 7 5 7 5 5 5 6
14 13 12 13 13 14 12 11 13 12 12 13 12 11 17 22 18 13 46 -0 31 13 13 11 10 9 8 9 6 7 8 7 10 7 9 11 9 5 6 4 4 5 4 7 6 10 11
12 12 14 12 13 10 11 11 13 13 13 13 13 13 16 25 18 18 -27 9 18 7 12 13 10 9 10 8 6 9 11 9 8 7 10 10 6 5 4 5 4 6 5 9 9 24 18
11 12 12 11 11 10 10 10 13 16 15 14 15 17 21 25 15 13 10 16 16 12 11 12 11 10 9 8 8 7 11 9 7 9 11 9 7 4 3 6 5 9 10 10 34 10 8
14 12 12 10 10 11 9 11 14 17 15 16 16 16 24 20 17 14 11 16 19 11 11 9 11 11 7 9 10 10 11 8 8 10 9 6 6 5 6 5 10 10 13 18 15 11 17
15 12 12 10 9 10 8 12 14 15 17 16 17 23 22 20 13 27 24 2 13 16 12 12 11 9 9 9 10 11 9 8 11 10 10 7 5 6 7 6 6 12 18 12 9 25 25
Height
5785 5787 5789 5791 5793 5795 5796 5798 5801 5804 5805 5807 5807 5809 5811 5814 5816 5818 5820 5821 5822 5823 5823 5824 5823 5821 5821 5821 5819 5819 5817 5816 5816 5816 5816 5816 5817 5815 5814 5814 5814 5812 5811 5810 5809 5807 5805
5778 5781 5783 5784 5787 5789 5791 5794 5796 5799 5802 5803 5805 5805 5808 5811 5813 5815 5816 5818 5819 5819 5819 5820 5819 5818 5817 5817 5815 5814 5812 5811 5809 5809 5808 5808 5808 5808 5806 5805 5805 5806 5805 5804 5803 5802 5800
5771 5773 5775 5778 5780 5783 5785 5788 5791 5794 5796 5799 5801 5803 5805 5807 5809 5811 5813 5815 5815 5815 5815 5816 5816 5814 5814 5813 5811 5810 5808 5806 5804 5803 5802 5802 5801 5800 5799 5797 5797 5797 5799 5799 5798 5797 5795
5763 5765 5768 5770 5772 5776 5779 5782 5784 5787 5791 5793 5796 5798 5801 5802 5805 5807 5809 5811 5811 5812 5812 5813 5812 5810 5810 5809 5808 5806 5805 5803 5800 5799 5798 5796 5796 5794 5793 5792 5791 5793 5793 5793 5790 5791 5790
5756 5757 5759 5762 5765 5769 5771 5774 5778 5780 5784 5787 5789 5792 5795 5797 5800 5803 5805 5807 5808 5809 5809 5809 5809 5807 5807 5806 5805 5804 5802 5800 5797 5795 5794 5792 5791 5789 5788 5787 5786 5786 5788 5787 5785 5785 5783
5747 5749 5752 5754 5757 5760 5763 5766 5770 5773 5776 5779 5784 5786 5789 5791 5794 5797 5800 5803 5803 5805 5806 5805 5805 5805 5804 5803 5801 5800 5799 5797 5795 5792 5791 5789 5787 5785 5783 5782 5783 5782 5782 5783 5783 5778 5778
5738 5741 5744 5746 5749 5751 5755 5757 5761 5765 5769 5771 5775 5779 5782 5785 5787 5790 5794 5797 5800 5802 5800 5801 5802 5800 5800 5799 5798 5797 5796 5795 5792 5790 5787 5785 5783 5781 5779 5778 5778 5778 5777 5778 5777 5773 5773
5730 5732 5735 5738 5741 5743 5746 5749 5752 5756 5759 5764 5767 5771 5774 5777 5781 5783 5787 5789 5792 5794 5796 5795 5796 5796 5796 5795 5793 5794 5792 5791 5789 5786 5784 5783 5779 5778 5775 5774 5774 5773 5773 5771 5771 5769 5769
5720 5722 5724 5727 5730 5733 5736 5739 5743 5747 5750 5754 5757 5761 5764 5768 5773 5776 5779 5784 5784 5786 5788 5790 5790 5791 5791 5792 5790 5790 5789 5787 5786 5784 5781 5779 5777 5775 5772 5771 5771 5769 5769 5768 5768 5765 5765
5711 5713 5715 5717 5719 5722 5726 5728 5731 5735 5740 5744 5747 5750 5754 5757 5764 5767 5771 5774 5777 5780 5781 5784 5783 5784 5786 5786 5786 5785 5785 5784 5782 5780 5777 5776 5774 5771 5770 5769 5768 5766 5765 5764 5763 5762 5763
5702 5704 5706 5708 5709 5711 5714 5718 5721 5724 5728 5732 5736 5741 5744 5747 5752 5757 5762 5765 5769 5772 5772 5776 5777 5779 5780 5781 5781 5781 5780 5778 5777 5776 5775 5772 5769 5768 5767 5765 5765 5764 5761 5759 5757 5757 5755
5693 5694 5696 5698 5700 5702 5704 5706 5709 5712 5715 5719 5724 5729 5733 5738 5742 5747 5751 5756 5760 5764 5762 5766 5770 5772 5774 5775 5775 5775 5775 5774 5773 5772 5770 5768 5767 5766 5764 5762 5760 5758 5757 5754 5753 5751 5749
5683 5685 5686 5688 5691 5692 5694 5695 5697 5699 5703 5707 5711 5716 5722 5726 5733 5737 5741 5745 5750 5751 5757 5759 5762 5765 5767 5769 5769 5770 5770 5769 5769 5768 5767 5765 5764 5762 5761 5758 5757 5754 5752 5749 5747 5745 5742
5672 5674 5676 5677 5679 5681 5683 5684 5685 5687 5690 5694 5698 5703 5708 5715 5721 5726 5730 5736 5739 5743 5747 5750 5754 5757 5760 5762 5763 5764 5765 5764 5763 5763 5763 5762 5759 5759 5757 5755 5751 5750 5748 5745 5738 5737 5735
5662 5663 5665 5666 5668 5670 5672 5673 5674 5677 5679 5683 5684 5690 5696 5702 5708 5715 5720 5723 5731 5734 5739 5742 5746 5749 5752 5756 5757 5759 5759 5759 5758 5758 5759 5757 5756 5754 5752 5749 5748 5742 5741 5739 5734 5728 5726
5651 5652 5652 5653 5655 5657 5659 5661 5663 5666 5668 5672 5674 5677 5684 5690 5696 5702 5707 5714 5720 5724 5730 5734 5738 5741 5745 5748 5750 5752 5753 5754 5753 5753 5752 5752 5750 5750 5747 5744 5742 5738 5734 5730 5726 5722 5720
5639 5640 5641 5642 5643 5645 5647 5649 5652 5655 5657 5660 5664 5667 5672 5678 5684 5690 5695 5702 5710 5714 5720 5726 5729 5733 5737 5740 5744 5746 5747 5748 5747 5747 5747 5747 5746 5745 5741 5740 5734 5731 5726 5724 5721 5718 5715
5628 5630 5631 5631 5633 5634 5636 5638 5641 5644 5646 5649 5652 5656 5661 5666 5673 5678 5685 5692 5700 5704 5709 5715 5720 5725 5730 5734 5736 5739 5741 5742 5742 5742 5743 5742 5741 5739 5736 5733 5729 5726 5722 5719 5716 5714 5710
5618 5620 5621 5621 5623 5624 5626 5628 5630 5633 5636 5637 5641 5645 5651 5655 5660 5667 5674 5682 5688 5694 5699 5705 5711 5717 5722 5727 5730 5733 5734 5736 5737 5738 5738 5738 5737 5733 5731 5730 5725 5722 5719 5715 5713 5709 5706
5609 5610 5611 5612 5613 5615 5616 5618 5620 5623 5626 5629 5631 5635 5640 5645 5649 5656 5664 5671 5679 5685 5689 5697 5703 5709 5716 5720 5724 5727 5729 5730 5732 5733 5733 5732 5731 5729 5727 5724 5722 5719 5715 5713 5710 5706 5702
5600 5601 5602 5604 5606 5607 5608 5609 5611 5614 5617 5620 5621 5624 5630 5635 5640 5645 5653 5662 5670 5677 5682 5689 5696 5703 5709 5714 5718 5720 5723 5725 5727 5727 5728 5727 5726 5724 5722 5720 5717 5714 5712 5710 5706 5702 5699
5592 5594 5595 5596 5597 5599 5600 5602 5603 5605 5609 5611 5614 5617 5622 5627 5632 5639 5646 5655 5662 5669 5676 5683 5691 5697 5702 5708 5711 5715 5717 5720 5722 5723 5723 5722 5721 5720 5718 5716 5713 5711 5708 5706 5702 5698 5694
5585 5587 5588 5589 5590 5592 5593 5595 5597 5599 5602 5604 5607 5610 5614 5619 5624 5630 5636 5644 5652 5661 5669 5675 5685 5691 5696 5701 5705 5709 5712 5715 5716 5718 5718 5718 5717 5716 5714 5712 5709 5707 5704 5701 5697 5693 5689
5579 5580 5582 5583 5584 5586 5588 5589 5591 5593 5595 5598 5600 5603 5608 5612 5617 5624 5633 5638 5645 5655 5663 5670 5678 5685 5692 5696 5700 5704 5708 5710 5712 5713 5714 5714 5713 5712 5710 5708 5706 5703 5700 5695 5691 5687 5682
5572 5574 5575 5577 5579 5581 5581 5583 5584 5587 5589 5591 5594 5598 5602 5606 5613 5621 5628 5634 5640 5649 5658 5664 5673 5680 5686 5691 5696 5700 5703 5706 5707 5709 5709 5709 5709 5708 5707 5704 5702 5698 5694 5690 5685 5680 5674
5566 5568 5570 5571 5573 5575 5576 5578 5579 5581 5583 5585 5588 5592 5596 5602 5608 5616 5622 5628 5635 5645 5652 5660 5668 5676 5683 5688 5692 5696 5699 5702 5704 5705 5705 5705 5705 5705 5702 5699 5696 5692 5688 5683 5678 5673 5667
5561 5563 5565 5567 5568 5570 5572 5573 5574 5576 5578 5580 5583 5587 5591 5597 5604 5612 5620 5625 5632 5641 5649 5656 5664 5672 5678 5683 5688 5692 5696 5698 5700 5700 5701 5702 5701 5700 5697 5693 5690 5686 5680 5676 5672 5670 5661
5556 5558 5560 5562 5564 5566 5568 5569 5570 5571 5573 5575 5579 5583 5588 5594 5602 5609 5616 5622 5630 5638 5644 5653 5661 5668 5675 5680 5685 5689 5692 5694 5695 5697 5698 5698 5697 5695 5692 5688 5685 5679 5673 5669 5664 5658 5654
5552 5554 5556 5558 5560 5563 5564 5565 5566 5567 5569 5572 5575 5579 5585 5592 5600 5605 5613 5619 5627 5635 5644 5651 5659 5665 5671 5677 5682 5685 5689 5691 5692 5694 5695 5694 5693 5691 5689 5683 5677 5671 5665 5661 5657 5653 5650